Location: Newark
(44.1667°N, 8.2500°E)
Time: 14:12:30
(UTC+00:00)

S-56A Canister/Altair - Pass Details

Date: 19 December 2019
Orbit: 634 x 2498 km, 38.9° (Epoch: 25 January)

Event Time Altitude Azimuth Distance (km) Brightness Sun altitude
Rises 04:59:44 0° 195° (SSW) 4,462 11.4 -20.2°
Reaches altitude 10° 05:03:08 10° 182° (S) 3,771 11.2 -19.6°
Maximum altitude 05:10:50 25° 133° (SE) 3,311 11.4 -18.3°
Drops below altitude 10° 05:20:32 10° 86° (E) 4,878 12.7 -16.6°
Sets 05:25:41 0° 76° (ENE) 6,065 13.1 -15.7°
